Location: Poigny-la-Forêt
(48.6876°N, 1.7701°E)
Time: 11:18:31
(UTC+02:00)

OTV 5 (USA 277) - Visible Passes

Search period start: 20 October 2019 00:00
Search period end: 29 October 2019 23:00
Orbit: 310 x 324 km, 54.5° (Epoch: 17 October)

Date Brightness Start Highest point End Pass type
(mag) Time Alt. Az. Time Alt. Az. Time Alt. Az.
20 Oct ? 07:05:03 17° SW 07:05:03 17° SW 07:06:45 10° S visible
28 Oct ? 19:38:19 10° SSW 19:38:40 12° SSW 19:38:40 12° SSW visible
29 Oct ? 19:52:26 10° SW 19:53:11 17° SW 19:53:11 17° SW visible
